N6DZK Weather Reports


time (UTC)temp
C
wind
direction
speed
KPH
gust
KPH
rain 1hr
cm
rain 24hr
cm
rain mn
cm
humidity
%
barometer
mb
20260503180109 21 326 0.0 3.2 0.00 0.00 0.00 50 1013.8
20260503175605 20 283 0.0 3.2 0.00 0.00 0.00 55 1013.6
20260503175102 19 335 0.0 1.6 0.00 0.00 0.00 57 1013.7
20260503174559 19 282 0.0 1.6 0.00 0.00 0.00 55 1013.7
20260503174056 19 345 0.0 0.0 0.00 0.00 0.00 56 1013.8
20260503173550 19 283 0.0 4.8 0.00 0.00 0.00 56 1013.6
20260503173047 20 21 1.6 3.2 0.00 0.00 0.00 53 1013.5
20260503172545 20 335 1.6 3.2 0.00 0.00 0.00 55 1013.6
20260503172042 20 49 0.0 1.6 0.00 0.00 0.00 59 1013.5
20260503171538 19 104 0.0 4.8 0.00 0.00 0.00 60 1013.5
20260503171036 18 345 0.0 3.2 0.00 0.00 0.00 63 1013.7
20260503170532 17 89 0.0 4.8 0.00 0.00 0.00 68 1013.6
20260503150924 14 66 0.0 0.0 0.00 0.00 0.00 78 1013.2
20260503150421 13 80 0.0 1.6 0.00 0.00 0.00 79 1013.2
20260503131314 12 115 0.0 3.2 0.00 0.00 0.00 85 1011.8
20260503130812 12 120 0.0 3.2 0.00 0.00 0.00 86 1012.0
20260503130309 12 122 1.6 1.6 0.00 0.00 0.00 86 1011.8
20260503110702 12 29 0.0 3.2 0.00 0.00 0.00 82 1011.6
20260503110200 12 89 0.0 3.2 0.00 0.00 0.00 82 1011.5
20260503100126 12 68 0.0 1.6 0.00 0.00 0.00 81 1011.5
20260503081516 12 122 0.0 1.6 0.00 0.00 0.00 79 1012.0
20260503081013 12 73 3.2 3.2 0.00 0.00 0.00 80 1012.2
20260503080509 12 81 0.0 3.2 0.00 0.00 0.00 79 1012.2
20260503072443 13 42 1.6 3.2 0.00 0.00 0.00 79 1012.4
20260503071940 13 150 0.0 4.8 0.00 0.00 0.00 79 1012.5
20260503071437 13 62 0.0 3.2 0.00 0.00 0.00 79 1012.3
20260503070932 13 134 0.0 3.2 0.00 0.00 0.00 79 1012.4
20260503070430 13 89 0.0 3.2 0.00 0.00 0.00 79 1012.5
20260503054843 13 235 0.0 4.8 0.00 0.00 0.00 77 1012.8
20260503054339 13 62 1.6 4.8 0.00 0.00 0.00 77 1012.7
20260503053837 13 3 0.0 4.8 0.00 0.00 0.00 77 1012.7
20260503053335 13 88 0.0 4.8 0.00 0.00 0.00 77 1012.7
20260503052831 13 58 3.2 3.2 0.00 0.00 0.00 77 1012.5
20260503052328 13 224 0.0 4.8 0.00 0.00 0.00 77 1012.6
20260503051824 13 311 0.0 3.2 0.00 0.00 0.00 77 1012.9
20260503051321 13 76 0.0 3.2 0.00 0.00 0.00 77 1012.9
20260503050818 13 158 0.0 1.6 0.00 0.00 0.00 77 1012.8
20260503050314 13 89 0.0 3.2 0.00 0.00 0.00 77 1012.7
20260503045812 13 37 1.6 3.2 0.00 0.00 0.00 77 1012.8
20260503045310 13 89 0.0 3.2 0.00 0.00 0.00 77 1012.8
20260503044806 13 85 0.0 3.2 0.00 0.00 0.00 77 1012.8
20260503044303 13 20 0.0 3.2 0.00 0.00 0.00 77 1012.7
20260503043800 13 224 0.0 1.6 0.00 0.00 0.00 77 1012.6
20260503043257 13 75 0.0 1.6 0.00 0.00 0.00 77 1012.7
20260503042752 13 66 0.0 3.2 0.00 0.00 0.00 77 1012.5
20260503042249 13 79 1.6 1.6 0.00 0.00 0.00 77 1012.4
20260503041745 13 34 0.0 1.6 0.00 0.00 0.00 77 1012.3
20260503041243 13 130 0.0 3.2 0.00 0.00 0.00 77 1012.3
20260503040741 13 325 0.0 1.6 0.00 0.00 0.00 77 1012.3
20260503040238 13 113 0.0 3.2 0.00 0.00 0.00 77 1012.2
20260503035735 13 50 0.0 1.6 0.00 0.00 0.00 77 1012.0
20260503035232 13 108 0.0 4.8 0.00 0.00 0.00 76 1012.0
20260503034730 13 77 0.0 3.2 0.00 0.00 0.00 77 1012.0
20260503034226 13 108 0.0 3.2 0.00 0.00 0.00 76 1011.7
20260503033724 13 22 0.0 3.2 0.00 0.00 0.00 76 1011.6
20260503033221 13 153 0.0 3.2 0.00 0.00 0.00 76 1011.7
20260503032720 14 147 0.0 1.6 0.00 0.00 0.00 76 1011.3
20260503032218 14 52 1.6 3.2 0.00 0.00 0.00 75 1011.4
20260503031714 14 46 3.2 3.2 0.00 0.00 0.00 75 1011.5
20260503031213 14 85 1.6 3.2 0.00 0.00 0.00 75 1011.3
20260503030709 15 65 0.0 3.2 0.00 0.00 0.00 74 1011.3
20260503030205 15 89 0.0 3.2 0.00 0.00 0.00 74 1011.3
20260503025702 15 36 1.6 6.4 0.00 0.00 0.00 73 1011.2
20260503025200 15 50 0.0 1.6 0.00 0.00 0.00 73 1011.3
20260503024656 15 68 0.0 4.8 0.00 0.00 0.00 72 1011.2
20260503024154 15 54 0.0 6.4 0.00 0.00 0.00 72 1011.1
20260503023650 15 77 1.6 3.2 0.00 0.00 0.00 71 1011.1
20260503023147 16 329 0.0 3.2 0.00 0.00 0.00 71 1010.9
20260503022644 16 9 3.2 3.2 0.00 0.00 0.00 71 1010.9
20260503022143 16 305 3.2 3.2 0.00 0.00 0.00 70 1010.8
20260503021640 16 307 0.0 4.8 0.00 0.00 0.00 69 1011.0
20260503021136 17 29 0.0 3.2 0.00 0.00 0.00 69 1010.9
20260503020634 17 103 0.0 3.2 0.00 0.00 0.00 68 1010.9
20260503020131 17 42 4.8 6.4 0.00 0.00 0.00 67 1010.9
20260503015628 17 41 3.2 4.8 0.00 0.00 0.00 67 1010.9
20260503015125 17 336 0.0 4.8 0.00 0.00 0.00 66 1010.7
20260503014620 17 290 0.0 4.8 0.00 0.00 0.00 65 1010.8
20260503014118 18 9 1.6 3.2 0.00 0.00 0.00 65 1010.9
20260503013615 18 322 4.8 4.8 0.00 0.00 0.00 64 1010.8
20260503013114 18 29 0.0 3.2 0.00 0.00 0.00 63 1010.9
20260503012611 18 96 1.6 3.2 0.00 0.00 0.00 62 1010.7
20260503012107 19 314 0.0 6.4 0.00 0.00 0.00 62 1010.6
20260503011604 20 356 1.6 3.2 0.00 0.00 0.00 60 1010.6
20260503011101 20 18 3.2 8.0 0.00 0.00 0.00 60 1010.6
20260503010557 20 41 3.2 6.4 0.00 0.00 0.00 59 1010.7
20260503010055 21 322 1.6 3.2 0.00 0.00 0.00 59 1010.6
20260503005551 21 55 0.0 3.2 0.00 0.00 0.00 57 1010.6
20260503005049 21 0 3.2 3.2 0.00 0.00 0.00 55 1010.6
20260503004545 22 86 3.2 3.2 0.00 0.00 0.00 54 1010.6
20260503004043 22 32 0.0 0.0 0.00 0.00 0.00 55 1010.5
20260503003539 22 329 0.0 0.0 0.00 0.00 0.00 54 1010.6
20260503003037 21 322 0.0 3.2 0.00 0.00 0.00 58 1010.7
20260503002534 22 304 0.0 0.0 0.00 0.00 0.00 57 1010.5
20260503002031 22 172 0.0 3.2 0.00 0.00 0.00 54 1010.7
20260503001527 22 41 0.0 1.6 0.00 0.00 0.00 55 1010.8
20260503001024 21 304 0.0 0.0 0.00 0.00 0.00 56 1010.9
20260503000522 22 145 0.0 3.2 0.00 0.00 0.00 53 1010.7
20260503000018 21 89 0.0 3.2 0.00 0.00 0.00 57 1010.8
20260502235515 22 234 0.0 4.8 0.00 0.00 0.00 54 1010.9
20260502235013 22 139 0.0 1.6 0.00 0.00 0.00 53 1010.8
20260502234509 22 20 0.0 3.2 0.00 0.00 0.00 53 1010.9
20260502234007 22 343 0.0 3.2 0.00 0.00 0.00 52 1010.8
20260502233506 21 202 0.0 3.2 0.00 0.00 0.00 53 1010.8
20260502233004 21 54 0.0 3.2 0.00 0.00 0.00 55 1010.9
20260502232500 21 50 3.2 3.2 0.00 0.00 0.00 55 1010.9
20260502231957 21 153 1.6 3.2 0.00 0.00 0.00 54 1011.0
20260502231454 21 72 3.2 3.2 0.00 0.00 0.00 55 1011.3
20260502230952 21 290 0.0 4.8 0.00 0.00 0.00 56 1011.1
20260502230450 21 39 3.2 4.8 0.00 0.00 0.00 57 1011.3
20260502225948 21 192 3.2 3.2 0.00 0.00 0.00 56 1011.6
20260502225444 21 41 3.2 3.2 0.00 0.00 0.00 56 1011.6
20260502224941 21 41 1.6 4.8 0.00 0.00 0.00 56 1011.6
20260502224437 21 240 3.2 4.8 0.00 0.00 0.00 55 1011.7
20260502223934 21 6 0.0 3.2 0.00 0.00 0.00 58 1011.6
20260502223432 21 291 1.6 4.8 0.00 0.00 0.00 57 1011.8
20260502222930 21 341 3.2 4.8 0.00 0.00 0.00 58 1011.9
20260502222427 21 188 6.4 6.4 0.00 0.00 0.00 58 1012.2
20260502221922 21 250 1.6 8.0 0.00 0.00 0.00 57 1012.3
20260502221419 21 67 0.0 3.2 0.00 0.00 0.00 58 1012.5
20260502220916 21 177 1.6 6.4 0.00 0.00 0.00 57 1012.5
20260502220412 20 252 3.2 4.8 0.00 0.00 0.00 56 1012.8
20260502215909 21 315 0.0 3.2 0.00 0.00 0.00 56 1013.0
20260502215406 21 55 0.0 3.2 0.00 0.00 0.00 57 1013.0
20260502214903 21 315 0.0 4.8 0.00 0.00 0.00 59 1013.0
20260502214359 20 232 3.2 6.4 0.00 0.00 0.00 58 1012.9
20260502213857 20 180 0.0 6.4 0.00 0.00 0.00 58 1013.1
20260502213354 21 183 3.2 3.2 0.00 0.00 0.00 56 1013.1
20260502212853 21 233 0.0 3.2 0.00 0.00 0.00 55 1013.1
20260502212351 21 218 1.6 1.6 0.00 0.00 0.00 57 1013.1
20260502211847 21 336 0.0 3.2 0.00 0.00 0.00 58 1013.0
20260502211343 20 93 1.6 4.8 0.00 0.00 0.00 60 1013.0
20260502210841 20 185 0.0 4.8 0.00 0.00 0.00 60 1013.1
20260502210338 20 89 0.0 6.4 0.00 0.00 0.00 60 1013.3
20260502205835 20 190 3.2 4.8 0.00 0.00 0.00 59 1013.2
20260502205330 20 304 0.0 4.8 0.00 0.00 0.00 62 1013.4
20260502204828 19 210 1.6 4.8 0.00 0.00 0.00 63 1013.5
20260502204325 20 214 3.2 4.8 0.00 0.00 0.00 61 1013.7
20260502203822 19 65 3.2 6.4 0.00 0.00 0.00 64 1013.8
20260502203320 20 44 0.0 6.4 0.00 0.00 0.00 61 1014.0
20260502202820 20 339 0.0 1.6 0.00 0.00 0.00 61 1014.0
20260502202319 19 32 3.2 4.8 0.00 0.00 0.00 63 1014.1
20260502201816 20 69 0.0 4.8 0.00 0.00 0.00 62 1014.0
20260502201312 20 169 0.0 4.8 0.00 0.00 0.00 63 1014.2
20260502200808 20 269 0.0 3.2 0.00 0.00 0.00 63 1014.2
20260502200304 20 21 0.0 8.0 0.00 0.00 0.00 62 1014.3
20260502195803 20 56 0.0 4.8 0.00 0.00 0.00 63 1014.2
20260502195259 20 224 1.6 4.8 0.00 0.00 0.00 63 1014.2
20260502194755 19 138 3.2 4.8 0.00 0.00 0.00 63 1014.3
20260502194253 18 280 0.0 4.8 0.00 0.00 0.00 65 1014.3
20260502193748 19 81 0.0 4.8 0.00 0.00 0.00 63 1014.5
20260502193246 19 143 0.0 8.0 0.00 0.00 0.00 64 1014.6
20260502192746 19 322 0.0 6.4 0.00 0.00 0.00 63 1014.7
20260502192244 18 184 1.6 3.2 0.00 0.00 0.00 63 1014.6
20260502191740 18 175 4.8 4.8 0.00 0.00 0.00 64 1014.7
20260502191239 18 94 0.0 4.8 0.00 0.00 0.00 65 1014.7
20260502190735 19 185 0.0 4.8 0.00 0.00 0.00 62 1014.7
20260502190233 19 124 0.0 1.6 0.00 0.00 0.00 65 1014.5
20260502185733 18 184 0.0 3.2 0.00 0.00 0.00 65 1014.6
20260502185229 18 167 0.0 4.8 0.00 0.00 0.00 65 1014.7
20260502184726 18 152 0.0 4.8 0.00 0.00 0.00 65 1014.6
20260502184221 18 168 1.6 3.2 0.00 0.00 0.00 65 1014.8
20260502183718 18 175 0.0 4.8 0.00 0.00 0.00 69 1014.8
20260502183214 17 135 0.0 3.2 0.00 0.00 0.00 70 1014.9
20260502182710 17 76 1.6 6.4 0.00 0.00 0.00 67 1014.9
20260502182205 17 89 0.0 3.2 0.00 0.00 0.00 70 1015.1
20260502181703 17 322 1.6 3.2 0.00 0.00 0.00 70 1014.8
20260502181202 17 118 0.0 3.2 0.00 0.00 0.00 71 1014.8
20260502180658 16 161 0.0 3.2 0.00 0.00 0.00 73 1015.0